"2009-11-02 00:00:00",1379806,7,163.2,3.63,0.781,12.54,105.1272,12.4,13.43,26.65,0,110.3,13.31,13.19,125.2
"2009-11-02 00:00:30",1379807,6.782,162.1,0.24,0.018,12.26,105.1337,12.41,13.41,26.7,0,110.3,13.35,13.21,124.1
"2009-11-02 00:01:00",1379808,7.184,164.7,5.302,1.006,13.69,105.1361,12.42,13.53,26.74,0,110.3,13.31,13.22,126.7
"2009-11-02 00:01:30",1379809,7.577,165.3,6.535,1.302,14.18,105.142,12.44,13.43,26.67,0,110.3,13.31,13.23,127.3
"2009-11-02 00:02:00",1379810,7.863,166.7,6.502,1.293,15.43,105.1411,12.43,13.59,26.78,0,110.3,13.31,13.23,128.7
"2009-11-02 00:02:30",1379811,7.827,166.5,6.927,1.36,15.31,105.146,12.45,13.58,26.79,0,110.3,13.31,13.24,128.5
"2009-11-02 00:03:00",1379812,8.38,170,6.252,1.277,16.2,105.1491,12.45,13.62,26.85,0,110.3,13.31,13.25,132.0
"2009-11-02 00:03:30",1379813,8.49,169.2,6.277,1.141,16.21,105.1528,12.46,13.64,26.9,0,110.3,13.31,13.26,131.2
"2009-11-02 00:04:00",1379814,7.389,163.9,6.772,1.24,14.33,105.1588,12.48,13.58,26.79,0,110.3,13.31,13.27,125.9
"2009-11-02 00:04:30",1379815,6.587,158.7,0.369,0.027,12.03,105.1593,12.48,13.43,26.59,0,110.3,13.34,13.28,120.7
"2009-11-02 00:05:00",1379816,6.597,158.3,0.523,0.016,12.24,105.1616,12.49,13.43,26.52,0,110.3,13.35,13.28,120.3
"2009-11-02 00:05:30",1379817,6.649,157.6,0.4,0.023,12.62,105.1627,12.49,13.43,26.52,0,110.3,13.35,13.28,119.6
"2009-11-02 00:06:00",1379818,7.593,162.2,6.825,1.289,15.22,105.1621,12.49,13.6,26.69,0,110.3,13.31,13.28,124.2
"2009-11-02 00:06:30",1379819,7.056,158.3,3.636,0.929,13.37,105.165,12.49,13.51,26.61,0,110.3,13.31,13.29,120.3
"2009-11-02 00:07:00",1379820,7.766,162.6,6.826,1.328,15.35,105.163,12.49,13.66,26.82,0,110.3,13.31,13.29,124.6
"2009-11-02 00:07:30",1379821,8.65,165.2,6.758,1.223,15.73,105.1658,12.5,13.68,26.96,0,110.3,13.31,13.29,127.2
"2009-11-02 00:08:00",1379822,8.85,168,5.622,1.206,16.44,105.1669,12.5,13.65,26.96,0,110.3,13.31,13.30,130.0
"2009-11-02 00:08:30",1379823,7.127,157.7,3.461,0.816,12.38,105.1667,12.5,13.44,26.74,0,110.3,13.31,13.29,119.7
"2009-11-02 00:09:00",1379824,6.841,156.3,0.338,0.056,12.19,105.1675,12.5,13.45,26.71,0,110.3,13.35,13.30,118.3
"2009-11-02 00:09:30",1379825,6.838,156.4,0.343,0.064,12.48,105.1653,12.5,13.45,26.69,0,110.3,13.35,13.29,118.4
"2009-11-02 00:10:00",1379826,6.954,156.5,0.313,0.054,12.87,105.1675,12.5,13.46,26.75,0,110.3,13.35,13.30,118.5
"2009-11-02 00:10:30",1379827,8.33,163.1,7.041,1.399,15.7,105.1678,12.5,13.62,27,0,110.3,13.32,13.30,125.1
"2009-11-02 00:11:00",1379828,7.607,159.6,5.471,0.942,14.37,105.1675,12.5,13.61,27.17,0,110.3,13.32,13.30,121.6
"2009-11-02 00:11:30",1379829,8.95,166.7,6.21,1.32,16.68,105.1672,12.5,13.8,27.42,0,110.3,13.32,13.30,128.7
"2009-11-02 00:12:00",1379830,9.22,168,5.807,1.125,16.58,105.1672,12.5,13.72,27.3,0,110.3,13.32,13.30,130.0
"2009-11-02 00:12:30",1379831,8.05,163.3,6.468,1.314,13.89,105.1655,12.5,13.54,27.04,0,110.3,13.32,13.29,125.3
"2009-11-02 00:13:00",1379832,6.935,157.3,0.531,0.052,11.88,105.1672,12.5,13.46,26.88,0,110.3,13.35,13.30,119.3
"2009-11-02 00:13:30",1379833,6.892,157.2,0.524,0.056,12.15,105.1681,12.5,13.47,26.77,0,110.3,13.35,13.30,119.2
"2009-11-02 00:14:00",1379834,6.8,156.8,0.142,0.052,12.58,105.1664,12.5,13.48,26.68,0,110.3,13.36,13.29,118.8
"2009-11-02 00:14:30",1379835,7.079,157.9,3.586,0.821,13.17,105.1672,12.5,13.47,26.6,0,110.3,13.33,13.30,119.9
"2009-11-02 00:15:00",1379836,7.433,161.6,6.198,1.141,14.89,105.1686,12.5,13.67,26.89,0,110.3,13.33,13.30,123.6
"2009-11-02 00:15:30",1379837,9.52,169.6,5.946,0.94,16.88,105.1692,12.51,13.61,27.14,0,110.3,13.33,13.30,131.6
"2009-11-02 00:16:00",1379838,9.86,173.3,2.988,0.763,17.52,105.1703,12.51,13.82,27.73,0,110.3,13.33,13.30,135.3
"2009-11-02 00:16:30",1379839,9.29,169.6,6.435,1.214,15.36,105.1686,12.5,13.67,28.07,0,110.3,13.33,13.30,131.6
"2009-11-02 00:17:00",1379840,7.481,163.4,0.481,0.04,11.8,105.1669,12.5,13.47,28.32,0,110.3,13.36,13.30,125.4
"2009-11-02 00:17:30",1379841,7.362,163.7,0.034,0.046,12.05,105.1667,12.5,13.48,28.41,0,110.3,13.36,13.29,125.7
"2009-11-02 00:18:00",1379842,7.299,163.8,0.046,0.038,12.42,105.1661,12.5,13.49,28.41,0,110.3,13.36,13.29,125.8
"2009-11-02 00:18:30",1379843,7.284,163.8,0.048,0.039,12.81,105.161,12.48,13.49,28.53,0,110.3,13.36,13.28,125.8
"2009-11-02 00:19:00",1379844,8.48,170.3,6.728,1.295,15.47,105.1517,12.46,13.61,28.78,0,110.3,13.33,13.26,132.3
"2009-11-02 00:19:30",1379845,7.815,168.4,6.372,1.142,14.76,105.1462,12.45,13.65,28.79,0,110.3,13.33,13.24,130.4
"2009-11-02 00:20:00",1379846,9.65,176.2,4.388,0.729,17.95,105.145,12.44,13.8,29.12,0,110.3,13.33,13.24,138.2
"2009-11-02 00:20:30",1379847,9.37,175.6,4.467,1.117,16.47,105.1483,12.45,13.75,28.87,0,110.3,13.33,13.25,137.6
"2009-11-02 00:21:00",1379848,7.482,164.4,0.787,0.043,12,105.1468,12.45,13.5,27.98,0,110.3,13.35,13.24,126.4
"2009-11-02 00:21:30",1379849,7.413,163.8,0.024,0.032,11.95,105.15,12.46,13.47,27.63,0,110.3,13.35,13.25,125.8
"2009-11-02 00:22:00",1379850,7.356,163.8,0,0.026,12.19,105.153,12.46,13.46,27.23,0,110.3,13.35,13.26,125.8
"2009-11-02 00:22:30",1379851,7.317,163.3,0.32,0.039,12.61,105.1545,12.47,13.45,27.06,0,110.3,13.35,13.26,125.3
"2009-11-02 00:23:00",1379852,7.338,163.1,2.647,0.494,13.29,105.1548,12.47,13.47,26.99,0,110.3,13.33,13.26,125.1
"2009-11-02 00:23:30",1379853,8.16,166.3,6.405,1.265,15.02,105.1572,12.47,13.48,26.9,0,110.3,13.32,13.27,128.3
"2009-11-02 00:24:00",1379854,9.69,174.7,3.816,0.84,18.02,105.1601,12.48,13.75,27.06,0,110.3,13.32,13.28,136.7
"2009-11-02 00:24:30",1379855,9.77,174.6,4.51,0.585,18.04,105.1616,12.49,13.8,27.25,0,110.3,13.32,13.28,136.6
"2009-11-02 00:25:00",1379856,8.53,170.2,6.753,1.373,15.13,105.1646,12.49,13.66,27.05,0,110.3,13.32,13.29,132.2
"2009-11-02 00:25:30",1379857,6.992,163.1,0.219,0.08,11.89,105.1684,12.5,13.46,26.59,0,110.3,13.35,13.30,125.1
"2009-11-02 00:26:00",1379858,6.691,162.6,0.505,0.127,11.88,105.1667,12.5,13.47,26.51,0,110.3,13.36,13.29,124.6
"2009-11-02 00:26:30",1379859,6.451,161.2,0.676,0.067,12.44,105.1699,12.51,13.46,26.41,0,110.3,13.36,13.30,123.2
"2009-11-02 00:27:00",1379860,6.326,160.4,0.645,0.067,12.85,105.1832,12.54,13.47,26.31,0,110.3,13.36,13.34,122.4
"2009-11-02 00:27:30",1379861,6.289,160.4,0.586,0.07,13.25,105.1967,12.58,13.47,26.27,0,110.3,13.36,13.37,122.4
"2009-11-02 00:28:00",1379862,7.365,168.4,6.995,1.321,16.44,105.1958,12.57,13.69,26.5,0,110.3,13.33,13.37,130.4
"2009-11-02 00:28:30",1379863,8.71,172.3,5.32,1.034,17.78,105.2018,12.59,13.74,26.57,0,110.3,13.33,13.38,134.3
"2009-11-02 00:29:00",1379864,8.69,170.3,5.845,1.165,16.74,105.2069,12.6,13.76,26.68,0,110.3,13.33,13.40,132.3
"2009-11-02 00:29:30",1379865,8.41,169.1,6.495,1.316,15.21,105.2107,12.61,13.62,26.6,0,110.3,13.33,13.41,131.1
"2009-11-02 00:30:00",1379866,6.803,161.6,0.516,0.034,11.91,105.2115,12.61,13.5,26.32,0,110.3,13.36,13.41,123.6
"2009-11-02 00:30:30",1379867,6.763,161.7,0.494,0.033,11.95,105.2133,12.62,13.51,26.31,0,110.3,13.36,13.41,123.7
"2009-11-02 00:31:00",1379868,6.749,162,0.263,0.032,12.32,105.2127,12.62,13.51,26.29,0,110.3,13.36,13.41,124.0
"2009-11-02 00:31:30",1379869,6.726,162.1,0.034,0.029,12.66,105.213,12.62,13.53,26.21,0,110.3,13.37,13.41,124.1
"2009-11-02 00:32:00",1379870,7.149,163.2,3.685,0.846,13.49,105.2133,12.62,13.52,26.07,0,110.3,13.33,13.41,125.2
"2009-11-02 00:32:30",1379871,7.776,166.3,6.476,1.161,15.19,105.2133,12.62,13.78,26.15,0,110.3,13.34,13.41,128.3
"2009-11-02 00:33:00",1379872,9.05,172,6.144,1.2,17.45,105.2133,12.62,13.79,26.1,0,110.3,13.34,13.41,134.0
"2009-11-02 00:33:30",1379873,9.25,174.6,4.741,1.011,17.54,105.2133,12.62,13.83,26.21,0,110.3,13.33,13.41,136.6
"2009-11-02 00:34:00",1379874,7.294,165.9,6.261,1.06,13.92,105.2133,12.62,13.74,26.09,0,110.3,13.33,13.41,127.9
"2009-11-02 00:34:30",1379875,6.704,163.3,4.221,0.861,12.51,105.2133,12.62,13.53,25.89,0,110.3,13.33,13.41,125.3
"2009-11-02 00:35:00",1379876,6.238,161.9,0.583,0.103,11.94,105.2133,12.62,13.55,25.84,0,110.3,13.36,13.41,123.9
"2009-11-02 00:35:30",1379877,6.374,162.2,0.942,0.139,12.41,105.2133,12.62,13.54,25.83,0,110.3,13.37,13.41,124.2
"2009-11-02 00:36:00",1379878,6.862,164.4,4.819,0.96,13.6,105.2133,12.62,13.54,25.82,0,110.3,13.33,13.41,126.4
"2009-11-02 00:36:30",1379879,7.152,164.7,4.901,0.764,13.84,105.2133,12.62,13.68,25.95,0,110.3,13.34,13.41,126.7
"2009-11-02 00:37:00",1379880,8.31,169.3,7.137,1.367,15.46,105.2133,12.62,13.6,26.21,0,110.3,13.34,13.41,131.3
"2009-11-02 00:37:30",1379881,8.47,170.1,6.706,1.324,16.42,105.2133,12.62,13.84,26.57,0,110.3,13.33,13.41,132.1
"2009-11-02 00:38:00",1379882,8.86,171.8,6.35,1.097,16.67,105.2133,12.62,13.79,26.68,0,110.3,13.33,13.41,133.8
"2009-11-02 00:38:30",1379883,7.151,164.3,5.207,0.914,13.29,105.2133,12.62,13.74,26.73,0,110.3,13.33,13.41,126.3
"2009-11-02 00:39:00",1379884,7.567,165.9,6.054,1.245,13,105.2133,12.62,13.56,26.3,0,110.3,13.33,13.41,127.9
"2009-11-02 00:39:30",1379885,6.811,163.2,0.314,0.029,11.96,105.2133,12.62,13.56,26.12,0,110.3,13.36,13.41,125.2
"2009-11-02 00:40:00",1379886,6.901,164.6,0.632,0.041,12.46,105.2133,12.62,13.56,26.31,0,110.3,13.36,13.41,126.6
"2009-11-02 00:40:30",1379887,7.039,167.5,4.364,0.519,13.84,105.2133,12.62,13.71,26.47,0,110.3,13.33,13.41,129.5
"2009-11-02 00:41:00",1379888,7.744,170.8,6.155,1.264,14.63,105.2133,12.62,13.62,26.26,0,110.3,13.33,13.41,132.8
"2009-11-02 00:41:30",1379889,7.84,172.1,6.457,1.241,15.22,105.2133,12.62,13.7,26.23,0,110.3,13.33,13.41,134.1
"2009-11-02 00:42:00",1379890,8.23,175.1,6.647,1.348,16.09,105.2133,12.62,13.81,26.37,0,110.3,13.33,13.41,137.1
"2009-11-02 00:42:30",1379891,9.02,178.2,6.166,1.084,16.52,105.2133,12.62,13.69,26.34,0,110.3,13.33,13.41,140.2
"2009-11-02 00:43:00",1379892,7.895,174,6.917,1.336,14.8,105.2133,12.62,13.66,26.49,0,110.3,13.33,13.41,136.0
"2009-11-02 00:43:30",1379893,6.735,168.1,0.258,0.039,12.15,105.2133,12.62,13.59,26.57,0,110.3,13.37,13.41,130.1
"2009-11-02 00:44:00",1379894,6.608,168,0.191,0.055,12.15,105.2133,12.62,13.54,26.76,0,110.3,13.37,13.41,130.0
"2009-11-02 00:44:30",1379895,6.723,168.1,2.63,0.677,12.46,105.2133,12.62,13.64,26.99,0,110.3,13.34,13.41,130.1
"2009-11-02 00:45:00",1379896,7.708,172.9,6.844,1.263,14.82,105.2133,12.62,13.63,27.08,0,110.3,13.34,13.41,134.9
"2009-11-02 00:45:30",1379897,6.653,168.9,2.651,0.049,13.3,105.213,12.62,13.65,27.14,0,110.3,13.38,13.41,130.9
"2009-11-02 00:46:00",1379898,7.792,175,6.371,1.271,14.93,105.2107,12.61,13.63,27.16,0,110.3,13.34,13.41,137.0
"2009-11-02 00:46:30",1379899,6.872,172.1,4.285,0.706,13.97,105.2073,12.6,13.81,27.37,0,110.3,13.34,13.40,134.1
"2009-11-02 00:47:00",1379900,8.5,181.4,5.511,1.202,16.61,105.204,12.59,13.74,27.35,0,110.3,13.34,13.39,143.4
"2009-11-02 00:47:30",1379901,7.833,177.3,6.887,1.369,15.15,105.2023,12.59,13.67,27.35,0,110.3,13.34,13.39,139.3
"2009-11-02 00:48:00",1379902,6.396,170.3,0.546,0.043,12.52,105.1994,12.58,13.56,26.8,0,110.3,13.38,13.38,132.3
"2009-11-02 00:48:30",1379903,7.445,174.9,6.476,1.317,14.03,105.1969,12.58,13.57,25.99,0,110.3,13.34,13.37,136.9
"2009-11-02 00:49:00",1379904,7.417,175.7,6.809,1.292,14.67,105.1941,12.57,13.7,26.15,0,110.3,13.34,13.37,137.7
"2009-11-02 00:49:30",1379905,6.535,171.3,3.442,0.675,12.89,105.1932,12.57,13.54,25.99,0,110.3,13.34,13.36,133.3
"2009-11-02 00:50:00",1379906,6.868,172.8,4.786,1.013,13.69,105.1963,12.57,13.68,26.22,0,110.3,13.34,13.37,134.8
"2009-11-02 00:50:30",1379907,7.112,173.8,6.074,1.201,14.07,105.1977,12.58,13.55,26.09,0,110.3,13.34,13.37,135.8
"2009-11-02 00:51:00",1379908,6.348,171.8,3.758,0.497,13.28,105.1966,12.58,13.56,26.01,0,110.3,13.38,13.37,133.8
"2009-11-02 00:51:30",1379909,8.13,180.5,6.412,1.22,16.72,105.198,12.58,13.75,26.12,0,110.3,13.34,13.38,142.5
"2009-11-02 00:52:00",1379910,7.986,180,5.96,1.238,16.66,105.1986,12.58,13.76,26.35,0,110.3,13.34,13.38,142.0
"2009-11-02 00:52:30",1379911,6.282,171.4,2.296,0.47,12.93,105.1972,12.58,13.54,25.97,0,110.3,13.34,13.37,133.4
"2009-11-02 00:53:00",1379912,7.372,175.5,6.869,1.342,14.3,105.1952,12.57,13.67,26.18,0,110.3,13.34,13.37,137.5
"2009-11-02 00:53:30",1379913,6.241,169.1,0.286,0.033,12.26,105.1927,12.57,13.59,26.57,0,110.3,13.38,13.36,131.1
"2009-11-02 00:54:00",1379914,6.087,170.4,0.499,0.055,12.38,105.1836,12.54,13.59,26.58,0,110.3,13.37,13.34,132.4
"2009-11-02 00:54:30",1379915,7.032,176.1,6.49,1.267,14.63,105.1814,12.54,13.62,26.51,0,110.3,13.34,13.33,138.1
"2009-11-02 00:55:00",1379916,6.055,169.9,0.324,0.039,12.6,105.1794,12.53,13.6,27.22,0,110.2,13.37,13.33,131.9
"2009-11-02 00:55:30",1379917,6.069,169.5,0.348,0.037,12.65,105.1794,12.53,13.53,27.5,0,110.3,13.37,13.33,131.5
"2009-11-02 00:56:00",1379918,7.712,177.8,6.654,1.316,15.93,105.1794,12.53,13.76,27.9,0,110.3,13.34,13.33,139.8
"2009-11-02 00:56:30",1379919,7.53,176.7,7.026,1.375,15.77,105.1794,12.53,13.8,27.86,0,110.2,13.34,13.33,138.7
"2009-11-02 00:57:00",1379920,6.991,175.9,6.48,1.321,15.1,105.1794,12.53,13.76,28.24,0,110.2,13.34,13.33,137.9
"2009-11-02 00:57:30",1379921,6.953,176.9,6.766,1.293,14.28,105.178,12.53,13.58,28.22,0,110.2,13.34,13.32,138.9
"2009-11-02 00:58:00",1379922,6.647,172.7,5.387,1.146,12.86,105.1698,12.51,13.51,29.23,0,110.2,13.33,13.30,134.7
"2009-11-02 00:58:30",1379923,6.601,172.7,5.502,0.975,13.49,105.1506,12.46,13.65,30.85,0,110.2,13.34,13.25,134.7
"2009-11-02 00:59:00",1379924,6.574,172.6,5.314,1.061,13.07,105.1456,12.44,13.51,31.09,0,110.2,13.34,13.24,134.6
"2009-11-02 00:59:30",1379925,6.057,170.4,0.505,0.029,12.45,105.1456,12.44,13.49,31.58,0,110.3,13.38,13.24,132.4
"2009-11-02 01:00:00",1379926,6.584,172.9,5.002,1.061,13.28,105.1456,12.44,13.48,31.73,0,110.2,13.34,13.24,134.9
"2009-11-02 01:00:30",1379927,7.286,176.6,6.564,1.246,15.01,105.1456,12.44,13.57,31.79,0,110.2,13.34,13.24,138.6
"2009-11-02 01:01:00",1379928,8.52,183.7,4.307,0.643,17.73,105.1425,12.44,13.75,31.84,0,110.2,13.34,13.23,145.7
"2009-11-02 01:01:30",1379929,7.725,179.4,6.314,1.234,15.86,105.1309,12.41,13.64,31.86,0,110.2,13.34,13.20,141.4
"2009-11-02 01:02:00",1379930,5.919,169.7,0.14,0.056,12.32,105.1154,12.37,13.48,31.6,0,110.3,13.38,13.16,131.7
"2009-11-02 01:02:30",1379931,6.817,174.7,6.621,1.231,13.76,105.1117,12.36,13.54,31.56,0,110.2,13.34,13.15,136.7
"2009-11-02 01:03:00",1379932,6.595,173.7,6.467,1.216,13.69,105.1117,12.36,13.55,31.44,0,110.2,13.34,13.15,135.7
"2009-11-02 01:03:30",1379933,5.704,169.7,0.202,0.023,12.15,105.1117,12.36,13.4,31.34,0,110.2,13.38,13.15,131.7
"2009-11-02 01:04:00",1379934,5.664,170.7,0.765,0.04,12.46,105.1058,12.34,13.38,31.72,0,110.2,13.38,13.14,132.7
"2009-11-02 01:04:30",1379935,7.253,180.6,7.063,1.453,14.19,105.0812,12.28,13.4,32.1,0,110.2,13.35,13.08,142.6
"2009-11-02 01:05:00",1379936,7.74,186.5,6.677,1.297,15.84,105.0779,12.27,13.53,32.25,0,110.2,13.35,13.07,148.5
"2009-11-02 01:05:30",1379937,8.23,187.9,6.666,1.26,16.06,105.0779,12.27,13.56,32.17,0,110.2,13.35,13.07,149.9
"2009-11-02 01:06:00",1379938,7.554,184.1,6.633,1.352,14.85,105.0779,12.27,13.48,32.15,0,110.2,13.35,13.07,146.1
"2009-11-02 01:06:30",1379939,6.452,179.5,4.03,0.929,12.47,105.0779,12.27,13.38,32.16,0,110.2,13.35,13.07,141.5
"2009-11-02 01:07:00",1379940,7.031,184.1,6.712,1.308,13.95,105.0779,12.27,13.4,32.3,0,110.2,13.35,13.07,146.1
"2009-11-02 01:07:30",1379941,5.932,179,0.394,0.055,11.77,105.0779,12.27,13.31,32.22,0,110.2,13.38,13.07,141.0
"2009-11-02 01:08:00",1379942,6.037,178.8,0.689,0.074,11.89,105.0747,12.26,13.28,32.42,0,110.2,13.38,13.06,140.8
"2009-11-02 01:08:30",1379943,6.156,178.1,0.509,0.035,12.18,105.0703,12.25,13.28,32.61,0,110.2,13.38,13.05,140.1
"2009-11-02 01:09:00",1379944,7.203,184.7,6.671,1.285,14.23,105.0626,12.23,13.34,32.87,0,110.2,13.35,13.03,146.7
"2009-11-02 01:09:30",1379945,8.08,190.2,6.269,1.201,16.46,105.0499,12.2,13.54,33.08,0,110.2,13.35,12.99,152.2
"2009-11-02 01:10:00",1379946,6.073,179.9,0.601,0.058,12.68,105.0455,12.19,13.29,33.05,0,110.2,13.35,12.98,141.9
"2009-11-02 01:10:30",1379947,7.48,186.1,6.875,1.333,14.85,105.0446,12.19,13.52,33.49,0,110.2,13.34,12.98,148.1
"2009-11-02 01:11:00",1379948,8.01,189.5,6.045,1.199,15.63,105.0461,12.19,13.45,33.5,0,110.2,13.34,12.99,151.5
"2009-11-02 01:11:30",1379949,5.895,183.2,1.296,0.136,11.76,105.0476,12.19,13.23,33.33,0,110.2,13.38,12.99,145.2
"2009-11-02 01:12:00",1379950,5.715,185.7,0.447,0.025,11.71,105.0467,12.19,13.23,33.17,0,110.2,13.38,12.99,147.7
"2009-11-02 01:12:30",1379951,5.735,185.1,0.666,0.05,12.06,105.047,12.19,13.22,32.55,0,110.2,13.38,12.99,147.1
"2009-11-02 01:13:00",1379952,5.877,184,0.455,0.042,12.51,105.0488,12.2,13.21,31.72,0,110.2,13.38,12.99,146.0
"2009-11-02 01:13:30",1379953,7.019,189.6,6.751,1.368,15.41,105.0428,12.18,13.45,31.97,0,110.2,13.34,12.98,151.6
"2009-11-02 01:14:00",1379954,6.969,184.5,8.21,1.35,15.48,105.0371,12.17,13.39,33.27,0,110.2,13.35,12.96,146.5
"2009-11-02 01:14:30",1379955,5.865,175.6,3.954,0.799,12.95,105.0219,12.13,13.3,33.84,0,110.2,13.34,12.92,137.6
"2009-11-02 01:15:00",1379956,7.394,180.5,6.163,1.251,15.41,105.0176,12.12,13.35,34.3,0,110.2,13.34,12.91,142.5
"2009-11-02 01:15:30",1379957,6.606,175.4,6.561,1.243,13.86,105.0208,12.13,13.25,34.37,0,110.2,13.34,12.92,137.4
"2009-11-02 01:16:00",1379958,5.555,169.8,0.321,0.082,11.84,105.0217,12.13,13.17,34.41,0,110.2,13.38,12.92,131.8
"2009-11-02 01:16:30",1379959,5.302,169.6,0.246,0.101,11.62,105.0229,12.13,13.16,34.66,0,110.2,13.39,12.93,131.6
"2009-11-02 01:17:00",1379960,5.091,167.5,0.641,0.045,11.97,105.019,12.12,13.14,34.92,0,110.2,13.39,12.92,129.5
"2009-11-02 01:17:30",1379961,5.609,170.5,5.812,1.079,13.55,105.0033,12.08,13.27,35.36,0,110.2,13.35,12.88,132.5
"2009-11-02 01:18:00",1379962,6.683,176.3,6.829,1.317,15.91,104.9926,12.05,13.38,35.59,0,110.2,13.35,12.85,138.3
"2009-11-02 01:18:30",1379963,6.729,175.2,6.686,1.273,14.92,104.9935,12.06,13.13,35.46,0,110.2,13.35,12.85,137.2
"2009-11-02 01:19:00",1379964,5.469,170.1,6.338,1.164,13.32,104.9944,12.06,13.29,35.91,0,110.2,13.35,12.85,132.1
"2009-11-02 01:19:30",1379965,6.642,174.3,6.339,1.237,15.37,104.9901,12.05,13.27,36,0,110.2,13.35,12.84,136.3
"2009-11-02 01:20:00",1379966,5.028,165.1,2.722,0.667,11.92,104.9677,11.99,13.16,36.19,0,110.2,13.35,12.78,127.1
"2009-11-02 01:20:30",1379967,4.85,166.1,1.242,0.023,11.76,104.9623,11.98,13.03,36.03,0,110.2,13.39,12.77,128.1
"2009-11-02 01:21:00",1379968,4.907,168.5,0.525,0.025,11.86,104.9647,11.98,13.03,36.08,0,110.2,13.39,12.78,130.5
"2009-11-02 01:21:30",1379969,5.268,170.7,3.491,0.811,12.47,104.9664,11.99,13.09,36.21,0,110.2,13.35,12.78,132.7
"2009-11-02 01:22:00",1379970,6.475,177.6,6.939,1.347,15.24,104.956,11.96,13.14,36.35,0,110.2,13.35,12.75,139.6
"2009-11-02 01:22:30",1379971,6.358,176.9,6.908,1.35,14.6,104.9415,11.92,13.02,36.29,0,110.2,13.35,12.72,138.9
"2009-11-02 01:23:00",1379972,6.309,179.1,7.18,1.36,15.11,104.9355,11.91,13.2,36.68,0,110.2,13.35,12.70,141.1
"2009-11-02 01:23:30",1379973,5.457,175,3.848,0.791,12.15,104.9376,11.91,12.99,36.28,0,110.2,13.35,12.71,137.0
"2009-11-02 01:24:00",1379974,5.475,174.3,3.603,0.792,11.94,104.9394,11.92,12.99,36.51,0,110.2,13.35,12.71,136.3
"2009-11-02 01:24:30",1379975,6.526,180.7,6.365,1.265,14.18,104.9343,11.9,13.03,36.64,0,110.2,13.35,12.70,142.7
"2009-11-02 01:25:00",1379976,5.426,175.4,0.445,0.058,11.79,104.9137,11.85,12.91,36.82,0,110.2,13.39,12.64,137.4
"2009-11-02 01:25:30",1379977,6.5,182.5,6.836,1.271,13.75,104.9082,11.84,12.97,36.47,0,110.2,13.35,12.63,144.5
"2009-11-02 01:26:00",1379978,6.11,180.9,6.017,1.069,13.27,104.9085,11.84,13.04,36.29,0,110.2,13.36,12.63,142.9
"2009-11-02 01:26:30",1379979,6.364,181.9,6.057,1.241,13.06,104.9088,11.84,12.86,36.05,0,110.2,13.36,12.63,143.9
"2009-11-02 01:27:00",1379980,6.724,186.1,6.826,1.336,14.62,104.9088,11.84,13.06,36.04,0,110.2,13.35,12.63,148.1
"2009-11-02 01:27:30",1379981,6.06,183.7,6.096,1.144,13.24,104.9094,11.84,13.03,35.66,0,110.2,13.35,12.63,145.7
"2009-11-02 01:28:00",1379982,5.408,180.2,1.223,0.034,11.76,104.9103,11.84,12.83,34.86,0,110.2,13.39,12.64,142.2
"2009-11-02 01:28:30",1379983,5.802,181.1,4.577,0.982,12.07,104.9097,11.84,12.83,34.87,0,110.2,13.35,12.63,143.1
"2009-11-02 01:29:00",1379984,6.058,182.1,6,1.15,13.48,104.9043,11.83,13.01,35.88,0,110.2,13.35,12.62,144.1
"2009-11-02 01:29:30",1379985,5.997,180.4,5.163,1.055,12.76,104.8998,11.82,12.8,36.41,0,110.2,13.35,12.61,142.4
"2009-11-02 01:30:00",1379986,6.454,184.6,7.188,1.288,13.97,104.8967,11.81,12.97,36.77,0,110.2,13.35,12.60,146.6
"2009-11-02 01:30:30",1379987,5.14,179.2,0.44,0.081,11.72,104.8863,11.78,12.88,36.38,0,110.2,13.39,12.57,141.2
"2009-11-02 01:31:00",1379988,6.021,184.9,6.829,1.297,13.56,104.8775,11.76,12.89,36.02,0,110.2,13.35,12.55,146.9
"2009-11-02 01:31:30",1379989,6.697,190.8,6.06,1.256,15.27,104.8764,11.76,13.05,35.76,0,110.2,13.35,12.55,152.8
"2009-11-02 01:32:00",1379990,5.443,184.7,5.56,1.072,12.46,104.8764,11.76,12.81,35.35,0,110.2,13.35,12.55,146.7
"2009-11-02 01:32:30",1379991,4.917,182.6,0.354,0.098,11.14,104.8764,11.76,12.74,35.3,0,110.2,13.39,12.55,144.6
"2009-11-02 01:33:00",1379992,5.173,185.6,4.769,0.949,12.02,104.8764,11.76,12.8,35.55,0,110.2,13.36,12.55,147.6
"2009-11-02 01:33:30",1379993,5.814,188.7,6.405,1.197,13.29,104.8764,11.76,12.75,35.62,0,110.2,13.36,12.55,150.7
"2009-11-02 01:34:00",1379994,6.294,191.2,6.636,1.356,14.6,104.8747,11.75,12.98,36.18,0,110.2,13.36,12.54,153.2
"2009-11-02 01:34:30",1379995,5.843,189.1,6.297,1.248,13.96,104.8631,11.72,12.88,36.35,0,110.2,13.36,12.52,151.1
"2009-11-02 01:35:00",1379996,6.3,191.2,6.793,1.263,13.82,104.8479,11.68,12.78,37.02,0,110.2,13.36,12.48,153.2
"2009-11-02 01:35:30",1379997,6.11,192.8,6.64,1.254,13.77,104.8425,11.67,12.89,37.2,0,110.2,13.36,12.46,154.8
"2009-11-02 01:36:00",1379998,5.604,191,4.566,0.952,12.71,104.8425,11.67,12.89,36.66,0,110.2,13.36,12.46,153.0
"2009-11-02 01:36:30",1379999,5.587,190.1,4.826,0.844,12.19,104.8425,11.67,12.72,35.77,0,110.2,13.36,12.46,152.1
"2009-11-02 01:37:00",1380000,5.287,187.9,0.364,0.049,11.55,104.8425,11.67,12.66,35.62,0,110.2,13.4,12.46,149.9
"2009-11-02 01:37:30",1380001,5.282,187.8,0.399,0.047,11.89,104.8417,11.67,12.7,35.66,0,110.2,13.4,12.46,149.8
"2009-11-02 01:38:00",1380002,6.81,196,7.159,1.317,15.56,104.8352,11.65,12.91,35.92,0,110.2,13.37,12.44,158.0
"2009-11-02 01:38:30",1380003,7.156,203.8,6.605,1.186,16.39,104.8166,11.6,12.9,35.29,0,110.2,13.37,12.40,165.8
"2009-11-02 01:39:00",1380004,5.834,200.1,5.738,1.05,13.62,104.8087,11.58,12.78,34.57,0,110.2,13.37,12.38,162.1
"2009-11-02 01:39:30",1380005,6.266,200.7,5.4,1.178,13.13,104.8087,11.58,12.67,33.25,0,110.2,13.37,12.38,162.7
"2009-11-02 01:40:00",1380006,6.367,203.1,6.339,1.239,13.69,104.8087,11.58,12.65,32.86,0,110.2,13.36,12.38,165.1
"2009-11-02 01:40:30",1380007,6.678,205.9,6.944,1.293,14.41,104.8087,11.58,12.77,33.05,0,110.2,13.36,12.38,167.9
"2009-11-02 01:41:00",1380008,5.538,200.9,0.397,0.042,11.97,104.8087,11.58,12.6,33,0,110.2,13.4,12.38,162.9
"2009-11-02 01:41:30",1380009,5.42,202,0.704,0.057,11.92,104.8087,11.58,12.58,33.17,0,110.2,13.4,12.38,164.0
"2009-11-02 01:42:00",1380010,5.346,204,3.612,0.463,12.7,104.8087,11.58,12.63,33.84,0,110.2,13.37,12.38,166.0
"2009-11-02 01:42:30",1380011,7.508,213.5,6.635,1.224,16.41,104.8087,11.58,12.78,34.22,0,110.2,13.37,12.38,175.5
"2009-11-02 01:43:00",1380012,7.192,208.7,6.695,1.339,15.92,104.8087,11.58,12.86,33.16,0,110.2,13.37,12.38,170.7
"2009-11-02 01:43:30",1380013,6.64,204.9,5.293,1.189,13.43,104.8087,11.58,12.69,32.09,0,110.2,13.37,12.38,166.9
"2009-11-02 01:44:00",1380014,6.383,205.7,5.336,1.044,13.42,104.8087,11.58,12.66,31.5,0,110.2,13.36,12.38,167.7
"2009-11-02 01:44:30",1380015,6.285,204.4,4.877,1.016,12.54,104.8087,11.58,12.59,30.7,0,110.2,13.36,12.38,166.4
"2009-11-02 01:45:00",1380016,7.042,207.9,6.903,1.316,14.46,104.8087,11.58,12.73,30.77,0,110.2,13.36,12.38,169.9
"2009-11-02 01:45:30",1380017,5.843,202.1,0.462,0.029,12.22,104.8101,11.59,12.58,31,0,110.2,13.39,12.38,164.1
"2009-11-02 01:46:00",1380018,5.671,202.5,0.516,0.053,12.59,104.8236,11.62,12.6,30.81,0,110.2,13.39,12.41,164.5
"2009-11-02 01:46:30",1380019,5.698,204.3,4.448,0.677,13.57,104.8343,11.65,12.74,30.81,0,110.1,13.36,12.44,166.3